Location: Trebic
(49.2170°N, 15.8830°E)
Time: 06:46:51
(UTC+02:00)

Transit 2A Rocket - Pass Details

Date: 24 July 2019
Orbit: 590 x 913 km, 66.7° (Epoch: 20 August)

Event Time Altitude Azimuth Distance (km) Brightness Sun altitude
Rises 12:11:11 0° 321° (NW) 3,174 7.9 58.9°
Reaches altitude 10° 12:13:42 10° 317° (NW) 2,194 7.2 59.0°
Maximum altitude 12:18:30 53° 241° (WSW) 822 6.1 59.3°
Drops below altitude 10° 12:22:53 10° 165° (SSE) 2,006 7.9 59.6°
Sets 12:25:06 0° 161° (SSE) 2,875 8.4 59.7°
